Hourly Data Report for July 31, 2017

QUALICUM BEACH AIRPORT
BRITISH COLUMBIA

49°20'14.000" N
124°23'38.000" W
58.20 m
1026562
71766
VOQ

Download Data

Hourly Data (July 2017)
Hourly Data Report for July 31, 2017
TIME
LST
Temp Definition
°C
Dew Point Definition
°C
Rel Hum Definition
%
Precip. Amount Definition
mm

Wind Dir Definition
10's deg

Wind Spd Definition
km/h
Visibility Definition
km
Stn Press Definition
kPa
Hmdx Definition


Wind Chill Definition


Weather Definition


00:00 17.5 12.3 72 0.0 29 5   101.83     LegendNANA
01:00 15.5 12.1 80 0.0 0 1   101.83     LegendNANA
02:00 14.3 11.8 85 0.0 0 1   101.85     LegendNANA
03:00 14.6 11.4 81 0.0 28 3   101.85     LegendNANA
04:00 14.8 10.9 77 0.0 27 7   101.88     LegendNANA
05:00 15.8 10.5 71 0.0 27 6   101.90     LegendNANA
06:00 16.6 10.4 67 0.0 27 5   101.93     LegendNANA
07:00 17.6 10.5 63 0.0 31 11   101.95     LegendNANA
08:00 18.5 10.5 59 0.0 31 11   101.96     LegendNANA
09:00 18.9 11.0 60 0.0 31 11   101.95     LegendNANA
10:00 20.0 10.5 54 0.0 34 12   101.92     LegendNANA
11:00 21.5 9.9 47 0.0 32 14   101.88     LegendNANA
12:00 22.5 10.3 46 0.0 32 13   101.84     LegendNANA
13:00 23.5 8.8 39 0.0 33 14   101.78     LegendNANA
14:00 24.4 8.7 37 0.0 33 10   101.74 25   LegendNANA
15:00 25.5 8.5 34 0.0 32 12   101.66 26   LegendNANA
16:00 26.4 8.3 32 0.0 31 12   101.61 27   LegendNANA
17:00 27.0 5.0 24 0.0 32 14   101.54 26   LegendNANA
18:00 27.0 5.4 25 0.0 31 14   101.51 26   LegendNANA
19:00 26.6 5.9 27 0.0 30 12   101.48 26   LegendNANA
20:00 24.2 6.3 32 0.0 30 10   101.48     LegendNANA
21:00 22.6 7.7 38 0.0 30 7   101.50     LegendNANA
22:00 18.3 8.5 53 0.0 27 5   101.51     LegendNANA
23:00 18.5 8.1 51 0.0 29 6   101.56     LegendNANA

Notes on Data Quality.

Legend

  • E = Estimated
  • M = Missing
  • NA = Not Available*
  • [empty] = Indicates an unobserved value
Date modified: